Denver Centennial, CO

6:16 AM MDT on June 28, 2017 (GMT -0600)
Centennial

Weather History for KAPA - May, 2013

Change the Weather History Date:

Thursday, May 2, 2013

  Actual Average Record
Temperature  
Mean Temperature 30 °F -  
Max Temperature 43 °F 62 °F 77 °F (2006)
Min Temperature 16 °F 36 °F 16 °F (2013)
Degree Days  
Heating Degree Days 35    
Month to date heating degree days 70  
Moisture  
Dew Point 19 °F    
Average Humidity 67    
Maximum Humidity 100    
Minimum Humidity 34    
Precipitation  
Precipitation T in - - ()
Month to date precipitation 0.28  
Year to date precipitation 3.24  
Sea Level Pressure  
Sea Level Pressure 30.67 in    
Wind  
Wind Speed 5 mph (West)    
Max Wind Speed 13 mph    
Max Gust Speed 18 mph    
Visibility 8 miles    
Events Snow    
Averages and records for this station are not official NWS values.
T = Trace of Precipitation, MM = Missing Value Source: NWS Daily Summary

Daily Weather History Graph

Daily Weather History Graph

Search for Another Location

Airport or City:

Trip Planner

Search our weather history database for the weather conditions in past years. The results will help you decide how hot, cold, wet, or windy it might be!

Date:

Astronomy

May. 02, 2013 Rise Set
Actual Time 5:58 AM MDT 7:54 PM MDT
Civil Twilight 5:29 AM MDT 8:23 PM MDT
Nautical Twilight 4:53 AM MDT 8:59 PM MDT
Astronomical Twilight 4:15 AM MDT 9:38 PM MDT
Moon 1:45 AM MDT (5/2) 12:48 PM MDT (5/2)
Length of Visible Light 14h 54m
Length of Day
13h 55m
Waning Gibbous, 47% of the Moon is Illuminated
May 2
Waning Gibbous
May 9
New
May 17
First Quarter
May 24
Full
May 31
Last Quarter

Hourly Weather History & Observations

Time (MDT) Temp. Windchill Dew Point Humidity Pressure Visibility Wind Dir Wind Speed Gust Speed Precip Events Conditions
12:06 AM 23.0 °F 15.8 °F 21.2 °F 93% 30.58 in 4.0 mi NNW 5.8 mph - 0.00 in Snow Light Snow
12:53 AM 23.0 °F - 21.0 °F 92% 30.74 in 3.0 mi Calm Calm - 0.00 in Snow Light Snow
1:53 AM 23.0 °F 14.7 °F 21.9 °F 96% 30.74 in 5.0 mi WNW 6.9 mph - 0.00 in Snow Light Snow
2:44 AM 23.0 °F 17.0 °F 21.2 °F 93% 30.59 in 2.5 mi WNW 4.6 mph - 0.00 in Snow Light Snow
2:46 AM 23.0 °F 17.0 °F 21.2 °F 93% 30.59 in 3.0 mi WNW 4.6 mph - 0.00 in Snow Light Snow
2:53 AM 23.0 °F 15.8 °F 21.9 °F 96% 30.74 in 4.0 mi WNW 5.8 mph - 0.00 in Snow Light Snow
3:37 AM 23.0 °F 13.1 °F 21.2 °F 93% 30.59 in 2.5 mi West 9.2 mph - 0.00 in Snow Light Snow
3:53 AM 23.0 °F 14.7 °F 21.0 °F 92% 30.75 in 3.0 mi West 6.9 mph - 0.00 in Snow Light Snow
4:53 AM 21.9 °F 14.5 °F 19.9 °F 92% 30.76 in 9.0 mi West 5.8 mph - 0.00 in   Mostly Cloudy
5:53 AM 19.9 °F 13.4 °F 19.0 °F 96% 30.79 in 9.0 mi South 4.6 mph - N/A   Scattered Clouds
6:53 AM 19.0 °F 10.0 °F 16.0 °F 88% 30.82 in 10.0 mi SW 6.9 mph - N/A   Scattered Clouds
7:53 AM 24.1 °F 17.0 °F 18.0 °F 77% 30.81 in 10.0 mi WSW 5.8 mph - N/A   Scattered Clouds
8:53 AM 28.0 °F - 18.0 °F 66% 30.80 in 10.0 mi Calm Calm - N/A   Scattered Clouds
9:53 AM 30.9 °F - 19.0 °F 61% 30.78 in 10.0 mi Calm Calm - N/A   Scattered Clouds
10:53 AM 33.1 °F - 21.0 °F 61% 30.78 in 10.0 mi Calm Calm - N/A   Scattered Clouds
11:53 AM 34.0 °F - 21.0 °F 59% 30.75 in 10.0 mi Calm Calm - N/A   Scattered Clouds
12:53 PM 35.1 °F 32.2 °F 16.0 °F 46% 30.73 in 10.0 mi WSW 3.5 mph - N/A   Scattered Clouds
1:53 PM 39.0 °F 34.0 °F 17.1 °F 41% 30.69 in 10.0 mi NNE 6.9 mph - N/A   Scattered Clouds
2:53 PM 39.9 °F 35.8 °F 16.0 °F 38% 30.64 in 10.0 mi NNE 5.8 mph - N/A   Scattered Clouds
3:53 PM 39.9 °F 37.8 °F 17.1 °F 40% 30.61 in 10.0 mi Variable 3.5 mph - N/A   Scattered Clouds
4:53 PM 41.0 °F 38.0 °F 16.0 °F 36% 30.59 in 10.0 mi Variable 4.6 mph - N/A   Scattered Clouds
5:53 PM 42.1 °F 39.2 °F 17.1 °F 37% 30.58 in 10.0 mi North 4.6 mph - N/A   Scattered Clouds
6:53 PM 41.0 °F 39.0 °F 17.1 °F 38% 30.58 in 10.0 mi NE 3.5 mph - N/A   Partly Cloudy
7:53 PM 37.9 °F 33.5 °F 19.0 °F 47% 30.57 in 10.0 mi East 5.8 mph - N/A   Partly Cloudy
8:53 PM 36.0 °F 33.3 °F 19.9 °F 52% 30.56 in 10.0 mi SE 3.5 mph - N/A   Partly Cloudy
9:53 PM 34.0 °F 27.2 °F 21.9 °F 61% 30.54 in 10.0 mi South 8.1 mph - N/A   Partly Cloudy
10:53 PM 32.0 °F 25.6 °F 21.9 °F 66% 30.51 in 10.0 mi South 6.9 mph - N/A   Clear
11:53 PM 33.1 °F 26.1 °F 21.0 °F 61% 30.48 in 10.0 mi SSE 8.1 mph - N/A   Clear